Regional Weather Roundup
Issued by NWS

Home | Current Version | Previous Version | Text Only | Print | Product List | Glossary Off
Versions: 1 2 3 4 5 6 7 8 9 10 11 12 13 14 15 16 17 18 19 20 21 22 23 24 25 26 27 28 29 30 31 32 33 34 35 36 37 38 39 40 41 42 43 44 45 46 47 48 49 50

000
ASUS43 KFSD 281602
RWRSD

WEATHER ROUNDUP FOR SOUTH DAKOTA
NATIONAL WEATHER SERVICE SIOUX FALLS SD
1100 AM CDT TUE MAR 28 2017

NOTE: "FAIR" INDICATES FEW OR NO CLOUDS BELOW 12,000 FEET WITH NO
SIGNIFICANT WEATHER AND/OR OBSTRUCTIONS TO VISIBILITY.


SDZ001>005-009-010-012>017-281700-
NORTHWEST AND NORTH CENTRAL SOUTH DAKOTA

CITY           SKY/WX    TMP DP  RH WIND       PRES   REMARKS
BUFFALO          N/A     47  38  71 E7        29.98R
FAITH            N/A     47  41  80 MISG      30.04S
MOBRIDGE       CLOUDY    47  37  68 E8        30.08R
$$

SDZ012>016-024>037-041>051-057-063-072>074-281700-
SOUTHWEST AND SOUTH CENTRAL SOUTH DAKOTA

CITY           SKY/WX    TMP DP  RH WIND       PRES   REMARKS
RAPID CTY ARPT LGT RAIN  41  38  89 SE8       30.02R
PIERRE         PTSUNNY   49  40  71 SE9       30.07R
CUSTER         LGT RAIN  39  35  86 NE8       30.01R FOG
ELLSWORTH AFB  LGT RAIN  44  38  80 CALM      30.01
PHILIP         LGT RAIN  47  46  97 E7        30.04R FOG
PINE RIDGE     LGT RAIN  46  45  96 SW5       30.02R FOG
SPEARFISH      FAIR      45  39  81 CALM      30.03R
WINNER         LGT RAIN  49  46  90 SE8       30.09R
$$

SDZ004>011-016>023-039-040-281700-
NORTHEAST SOUTH DAKOTA

CITY           SKY/WX    TMP DP  RH WIND       PRES   REMARKS
ABERDEEN       CLOUDY    43  34  70 VRB3      30.16R
WATERTOWN      CLOUDY    51  37  58 E5        30.13R
BROOKINGS      SUNNY     51  39  63 CALM      30.13R
SISSETON         N/A     38  38 100 CALM      30.16R
$$

SDZ017-020-022-023-036>040-048>070-281700-
SOUTHEAST SOUTH DAKOTA

CITY           SKY/WX    TMP DP  RH WIND       PRES   REMARKS
SIOUX FALLS    PTSUNNY   52  41  66 CALM      30.14R
HURON          CLOUDY    49  42  77 SE7       30.13S
CHAMBERLAIN    CLOUDY    47  44  86 E5        30.11R
MITCHELL       CLOUDY    50  41  71 SE8       30.14R
YANKTON        SUNNY     48  41  76 SE5       30.13R
$$

ABBREVIATIONS USED IN REMARKS
   TC - TEMPERATURE IN CELSIUS
  WCI - WIND CHILL INDEX
   HX - HEAT INDEX
  VSB - VISIBILITY




USA.gov is the U.S. government's official web portal to all federal, state and local government web resources and services.